TimeMDT,TemperatureF,Dew PointF,Humidity,Sea Level PressureIn,VisibilityMPH,Wind Direction,Wind SpeedMPH,Gust SpeedMPH,PrecipitationIn,Events,Conditions,WindDirDegrees,DateUTC
12:53 AM,45.0,34.0,65,30.11,10.0,West,8.1,-,N/A,,Mostly Cloudy,260,2013-03-30 06:53:00
1:53 AM,45.0,32.0,60,30.11,10.0,SW,9.2,-,N/A,,Scattered Clouds,220,2013-03-30 07:53:00
2:53 AM,44.1,28.9,55,30.13,10.0,Calm,Calm,-,N/A,,Overcast,0,2013-03-30 08:53:00
3:53 AM,44.1,28.0,53,30.11,10.0,WNW,13.8,-,N/A,,Overcast,300,2013-03-30 09:53:00
4:53 AM,43.0,27.0,53,30.12,10.0,WNW,8.1,-,N/A,,Scattered Clouds,290,2013-03-30 10:53:00
5:53 AM,42.1,27.0,55,30.13,10.0,West,12.7,-,N/A,,Scattered Clouds,280,2013-03-30 11:53:00
6:53 AM,41.0,28.9,62,30.15,10.0,West,13.8,-,N/A,,Scattered Clouds,280,2013-03-30 12:53:00
7:53 AM,43.0,28.9,58,30.17,10.0,West,11.5,-,N/A,,Partly Cloudy,280,2013-03-30 13:53:00
8:53 AM,48.0,28.9,48,30.15,10.0,West,15.0,-,N/A,,Scattered Clouds,280,2013-03-30 14:53:00
9:53 AM,53.1,28.0,38,30.14,10.0,NW,19.6,-,N/A,,Partly Cloudy,310,2013-03-30 15:53:00
10:53 AM,54.0,25.0,33,30.15,10.0,NNW,19.6,25.3,N/A,,Scattered Clouds,330,2013-03-30 16:53:00
11:53 AM,55.9,25.0,30,30.15,10.0,NW,23.0,28.8,N/A,,Mostly Cloudy,310,2013-03-30 17:53:00
12:53 PM,57.0,27.0,32,30.16,10.0,NNW,20.7,-,N/A,,Mostly Cloudy,340,2013-03-30 18:53:00
1:53 PM,60.1,23.0,24,30.14,10.0,WNW,20.7,31.1,N/A,,Mostly Cloudy,300,2013-03-30 19:53:00
2:53 PM,57.9,19.9,23,30.15,10.0,NNW,26.5,31.1,N/A,,Mostly Cloudy,340,2013-03-30 20:53:00
3:53 PM,59.0,21.0,23,30.14,10.0,NW,17.3,27.6,N/A,,Partly Cloudy,310,2013-03-30 21:53:00
4:53 PM,59.0,19.9,22,30.13,10.0,NW,18.4,25.3,N/A,,Scattered Clouds,320,2013-03-30 22:53:00
5:53 PM,57.9,19.9,23,30.12,10.0,NW,10.4,-,N/A,,Partly Cloudy,310,2013-03-30 23:53:00
6:53 PM,57.0,19.9,24,30.12,10.0,North,8.1,-,N/A,,Partly Cloudy,350,2013-03-31 00:53:00
7:53 PM,48.0,19.0,32,30.12,10.0,North,4.6,-,N/A,,Partly Cloudy,350,2013-03-31 01:53:00
8:53 PM,48.9,19.0,31,30.11,10.0,East,4.6,-,N/A,,Clear,90,2013-03-31 02:53:00
9:53 PM,46.9,21.0,36,30.09,10.0,ESE,5.8,-,N/A,,Clear,120,2013-03-31 03:53:00
10:53 PM,46.0,23.0,40,30.07,10.0,ESE,5.8,-,N/A,,Clear,120,2013-03-31 04:53:00
11:53 PM,46.9,23.0,39,30.05,10.0,SE,6.9,-,N/A,,Clear,140,2013-03-31 05:53:00